TimeMDT,TemperatureF,Dew PointF,Humidity,Sea Level PressureIn,VisibilityMPH,Wind Direction,Wind SpeedMPH,Gust SpeedMPH,PrecipitationIn,Events,Conditions,WindDirDegrees,DateUTC
12:53 AM,66.9,39.0,36,30.01,10.0,Calm,Calm,-,N/A,,Clear,0,2013-07-26 06:53:00
1:53 AM,66.9,37.9,34,30.02,10.0,Calm,Calm,-,N/A,,Clear,0,2013-07-26 07:53:00
2:53 AM,62.1,39.0,43,30.04,10.0,NNW,3.5,-,N/A,,Clear,340,2013-07-26 08:53:00
3:53 AM,60.1,37.9,44,30.05,10.0,Calm,Calm,-,N/A,,Clear,0,2013-07-26 09:53:00
4:53 AM,57.0,39.0,51,30.07,10.0,Calm,Calm,-,N/A,,Clear,0,2013-07-26 10:53:00
5:53 AM,55.0,41.0,59,30.09,10.0,Calm,Calm,-,N/A,,Clear,0,2013-07-26 11:53:00
6:53 AM,55.0,39.9,57,30.10,10.0,Calm,Calm,-,N/A,,Clear,0,2013-07-26 12:53:00
7:53 AM,63.0,39.9,43,30.11,10.0,Calm,Calm,-,N/A,,Clear,0,2013-07-26 13:53:00
8:53 AM,66.0,42.1,42,30.12,10.0,South,3.5,-,N/A,,Clear,180,2013-07-26 14:53:00
9:53 AM,70.0,39.9,33,30.12,10.0,Calm,Calm,-,N/A,,Clear,0,2013-07-26 15:53:00
10:53 AM,75.9,37.0,24,30.10,10.0,Calm,Calm,-,N/A,,Clear,0,2013-07-26 16:53:00
11:53 AM,84.0,37.9,19,30.07,10.0,Calm,Calm,-,N/A,,Clear,0,2013-07-26 17:53:00
12:53 PM,87.1,39.0,18,30.04,10.0,Variable,3.5,-,N/A,,Clear,0,2013-07-26 18:53:00
1:53 PM,91.0,33.1,13,30.01,10.0,Variable,5.8,-,N/A,,Clear,0,2013-07-26 19:53:00
2:53 PM,93.0,28.9,10,29.99,10.0,NW,5.8,-,N/A,,Clear,310,2013-07-26 20:53:00
3:53 PM,95.0,26.1,9,29.96,10.0,NNW,6.9,17.3,N/A,,Clear,340,2013-07-26 21:53:00
4:53 PM,95.0,21.0,7,29.95,8.0,NW,12.7,21.9,N/A,,Clear,320,2013-07-26 22:53:00
7:54 PM,90.0,18.0,7,29.94,10.0,WSW,11.5,19.6,N/A,,Clear,250,2013-07-27 01:54:00
8:53 PM,82.0,23.0,11,29.96,10.0,WNW,5.8,-,N/A,,Clear,290,2013-07-27 02:53:00
9:53 PM,75.0,25.0,16,29.97,10.0,North,4.6,-,N/A,,Clear,360,2013-07-27 03:53:00
10:53 PM,72.0,26.1,18,29.97,10.0,North,9.2,-,N/A,,Clear,350,2013-07-27 04:53:00
11:53 PM,70.0,32.0,25,29.96,10.0,Calm,Calm,-,N/A,,Clear,0,2013-07-27 05:53:00